(318624) = 2005 JZ137

Discovered at Kitt Peak on 2005-05-13 by Spacewatch.

Orbit

Orbit type: Main Belt

Note: WebGL enabled browser required.

epoch2024-03-31.0
epoch JD2460400.5
perihelion date2023-03-31.70710
perihelion JD2460035.20710
argument of perihelion (°)282.61820
ascending node (°)182.95802
inclination (°)9.26350
eccentricity0.0953146
perihelion distance (AU)2.2171239
Tisserand w.r.t. Jupiter3.5
ΔV w.r.t. Earth (km/sec)9.7
semimajor axis (AU)2.4507126
mean anomaly (°)93.84400
mean daily motion (°/day)0.25690070
aphelion distance (AU)2.684
period (years)3.84
P-vector [x]-0.26786334
P-vector [y]0.93461155
P-vector [z]0.23398821
Q-vector [x]-0.96342110
Q-vector [y]-0.25774002
Q-vector [z]-0.07341566
absolute magnitude17.21
phase slope0.15
uncertainty0
referenceMPEC 2024-D35
observations used352
oppositions13
arc length (days)8302
first opposition used2001
last opposition used2024
residual rms (arc-secs)0.67
perturbers coarse indicatorM-v
perturbers precise indicator003Ek
first observation date used2001-05-24.0
last observation date used2024-02-15.0
computer nameMPCLINUX
JD of orbit computation2456966.702937
perihelion JD uncertainty (days)1.4113E-04
argument of perihelion uncertainty (°)4.5772E-05
ascending node uncertainty (°)1.4571E-05
inclination uncertainty (°)3.8036E-06
eccentricity uncertainty 4.4488E-08
perihelion distance uncertainty (AU)1.2578E-07
Minimum Orbit Intersection Distances (in AU)
for orbit epoch: 2460400.5, reference: E2024-G95
Mercury1.91185
Venus1.51638
Earth1.25571
Mars0.6508
Jupiter2.43437
Saturn6.83433
Uranus16.0906
Neptune27.3898

Observations

358 total observations over interval: 2001 05 24.203950 – 2024 02 15.655549
These data are available for download (format description).

Date (UT) J2000 RA J2000 Dec Magn Location Ref
2001 05 24.203950 14 14 46.052 -03 22 21.16 21.20 V 645 – Apache Point-Sloan Digital Sky Survey MPS 312363
2001 05 24.207422 14 14 45.923 -03 22 20.27 21.99   645 – Apache Point-Sloan Digital Sky Survey MPS 312363
2005 04 30.31884 16 04 15.45 -09 17 21.3 21.1 V 691 – Steward Observatory, Kitt Peak-Spacewatch MPS 312363
2005 04 30.33666 16 04 14.63 -09 17 14.4 20.7 V 691 – Steward Observatory, Kitt Peak-Spacewatch MPS 312363
2005 04 30.35451 16 04 13.79 -09 17 07.7 20.9 V 691 – Steward Observatory, Kitt Peak-Spacewatch MPS 312363
2005 05 13.30724 15 53 19.51 -07 57 41.6 21.0 V 691 – Steward Observatory, Kitt Peak-Spacewatch MPS 135399
2005 05 13.32519 15 53 18.54 -07 57 35.8 20.8 V 691 – Steward Observatory, Kitt Peak-Spacewatch MPS 135399
2005 05 13.34243 15 53 17.57 -07 57 29.7 20.9 V 691 – Steward Observatory, Kitt Peak-Spacewatch MPS 135399
2005 05 20.26194 15 46 57.28 -07 21 00.3 20.3 V G96 – Mt. Lemmon Survey MPS 135399
2005 05 20.26858 15 46 56.92 -07 20 58.0 20.3 V G96 – Mt. Lemmon Survey MPS 135399
2005 05 20.27520 15 46 56.53 -07 20 55.8 20.0 V G96 – Mt. Lemmon Survey MPS 135399
2005 05 20.28181 15 46 56.17 -07 20 54.4 20.1 V G96 – Mt. Lemmon Survey MPS 135399
2005 06 13.16381 15 27 50.50 -06 08 30.4 21.3 V 691 – Steward Observatory, Kitt Peak-Spacewatch MPS 312363
2005 06 13.18123 15 27 49.83 -06 08 29.7 21.3 V 691 – Steward Observatory, Kitt Peak-Spacewatch MPS 312363
2005 06 13.19865 15 27 49.18 -06 08 28.1 21.0 V 691 – Steward Observatory, Kitt Peak-Spacewatch MPS 312363
2006 08 29.36715 22 44 17.48 -01 25 03.2 20.8 V 703 – Catalina Sky Survey MPS 312363
2006 08 29.37118 22 44 17.23 -01 25 05.1 20.3 V 703 – Catalina Sky Survey MPS 312363
2006 08 29.37520 22 44 17.12 -01 25 07.3 20.1 V 703 – Catalina Sky Survey MPS 312363
2006 08 29.37924 22 44 16.83 -01 25 09.6 20.6 V 703 – Catalina Sky Survey MPS 312363
2006 09 28.18456 22 22 13.94 -05 41 31.3 20.8 V G96 – Mt. Lemmon Survey MPS 312363
2006 09 28.19230 22 22 13.65 -05 41 34.6 20.9 V G96 – Mt. Lemmon Survey MPS 312363
2006 09 28.20005 22 22 13.44 -05 41 38.7 20.9 V G96 – Mt. Lemmon Survey MPS 312363
2006 09 28.20792 22 22 13.18 -05 41 42.0 21.0 V G96 – Mt. Lemmon Survey MPS 312363
2006 10 21.13880 22 16 52.42 -07 58 19.8 21.4 V G96 – Mt. Lemmon Survey MPS 312363
2006 10 21.14333 22 16 52.46 -07 58 20.7 21.1 V G96 – Mt. Lemmon Survey MPS 312363
2006 10 21.14788 22 16 52.46 -07 58 22.2 21.5 V G96 – Mt. Lemmon Survey MPS 312363
2006 10 21.15251 22 16 52.46 -07 58 23.5 21.0 V G96 – Mt. Lemmon Survey MPS 312363
2006 12 21.08960 23 02 04.45 -06 48 59.9 21.8 R 695 – Kitt Peak MPS 312363
2006 12 21.17146 23 02 10.44 -06 48 33.6   695 – Kitt Peak MPS 312363
2008 01 31.34450 08 10 33.28 +05 59 29.1 19.7   704 – Lincoln Laboratory ETS, New Mexico MPS 312363
2008 01 31.35708 08 10 32.59 +05 59 34.2 19.6   704 – Lincoln Laboratory ETS, New Mexico MPS 312363
2008 01 31.36964 08 10 31.89 +05 59 40.2 19.8   704 – Lincoln Laboratory ETS, New Mexico MPS 312363
2008 01 31.39475 08 10 30.48 +05 59 50.3 19.6   704 – Lincoln Laboratory ETS, New Mexico MPS 312363
2008 02 02.23365 08 08 53.52 +06 12 59.7 19.6 V 703 – Catalina Sky Survey MPS 312363
2008 02 02.23902 08 08 53.16 +06 13 03.1 20.3 V 703 – Catalina Sky Survey MPS 312363
2008 02 02.24437 08 08 52.94 +06 13 04.8 19.6 V 703 – Catalina Sky Survey MPS 312363
2008 02 02.24972 08 08 52.58 +06 13 06.4 19.9 V 703 – Catalina Sky Survey MPS 312363
2010 10 30.21462 23 35 40.24 -04 12 43.3 21.0 r 568 – Maunakea MPS 1141166
2010 10 30.22126 23 35 40.14 -04 12 45.2 21.0 r 568 – Maunakea MPS 1141166
2010 10 30.22783 23 35 40.05 -04 12 47.1 21.0 r 568 – Maunakea MPS 1141166
2010 11 01.20567 23 35 18.51 -04 21 54.2 21.0 r 568 – Maunakea MPS 1623418
2010 11 01.21221 23 35 18.44 -04 21 55.9 21.0 r 568 – Maunakea MPS 1623418
2010 11 01.21878 23 35 18.37 -04 21 57.7 21.0 r 568 – Maunakea MPS 1623418
2012 01 19.45855 10 21 31.308 -00 25 14.09 20.7 w F51 – Pan-STARRS 1, Haleakala MPS 407716
2012 01 19.48136 10 21 30.764 -00 25 10.84 20.6 w F51 – Pan-STARRS 1, Haleakala MPS 407716
2012 01 19.49537 10 21 30.427 -00 25 08.68 20.8 w F51 – Pan-STARRS 1, Haleakala MPS 407716
2012 01 19.50951 10 21 30.081 -00 25 06.57 20.6 w F51 – Pan-STARRS 1, Haleakala MPS 407716
2012 02 13.51045 10 05 16.564 +01 56 49.21 20.0 r F51 – Pan-STARRS 1, Haleakala MPS 411549
2012 02 13.51194 10 05 16.490 +01 56 49.95 20.1 r F51 – Pan-STARRS 1, Haleakala MPS 411549
2012 02 13.51494 10 05 16.329 +01 56 51.52 20.0 r F51 – Pan-STARRS 1, Haleakala MPS 411549
2012 02 13.51643 10 05 16.247 +01 56 52.27 20.1 r F51 – Pan-STARRS 1, Haleakala MPS 411549
2012 02 13.51790 10 05 16.173 +01 56 52.94 20.2 r F51 – Pan-STARRS 1, Haleakala MPS 411549
2012 02 13.51938 10 05 16.097 +01 56 53.72 20.1 r F51 – Pan-STARRS 1, Haleakala MPS 411549
2012 02 14.35708 10 04 34.075 +02 04 01.16 20.2 w F51 – Pan-STARRS 1, Haleakala MPS 411549
2012 02 14.37132 10 04 33.320 +02 04 08.58 20.1 w F51 – Pan-STARRS 1, Haleakala MPS 411549
2012 02 14.39967 10 04 31.814 +02 04 23.19 20.2 w F51 – Pan-STARRS 1, Haleakala MPS 411549
2012 02 15.54831 10 03 32.883 +02 14 20.32 20.0 z F51 – Pan-STARRS 1, Haleakala MPS 411549
2012 02 15.55127 10 03 32.738 +02 14 21.84 20.1 z F51 – Pan-STARRS 1, Haleakala MPS 411549
2012 02 15.55423 10 03 32.575 +02 14 23.42 20.1 z F51 – Pan-STARRS 1, Haleakala MPS 411549
2012 02 15.56016 10 03 32.250 +02 14 26.56 20.2 z F51 – Pan-STARRS 1, Haleakala MPS 411549
2012 02 15.56312 10 03 32.097 +02 14 28.07 20.2 z F51 – Pan-STARRS 1, Haleakala MPS 411549
2012 02 20.53504 09 59 16.948 +02 59 37.22 19.9 i F51 – Pan-STARRS 1, Haleakala MPS 413008
2012 02 20.53808 09 59 16.793 +02 59 38.86 19.9 i F51 – Pan-STARRS 1, Haleakala MPS 413008
2012 02 20.54420 09 59 16.451 +02 59 42.47 19.9 i F51 – Pan-STARRS 1, Haleakala MPS 413008
2012 02 20.55029 09 59 16.156 +02 59 45.74 19.9 i F51 – Pan-STARRS 1, Haleakala MPS 413008
2012 02 20.55333 09 59 15.973 +02 59 47.48 19.8 i F51 – Pan-STARRS 1, Haleakala MPS 413008
2012 02 22.51329 09 57 36.174 +03 18 18.89 19.9 i F51 – Pan-STARRS 1, Haleakala MPS 413008
2012 02 22.51637 09 57 36.015 +03 18 20.65 19.9 i F51 – Pan-STARRS 1, Haleakala MPS 413008
2012 02 22.52247 09 57 35.694 +03 18 24.06 20.0 i F51 – Pan-STARRS 1, Haleakala MPS 413008
2012 02 22.52551 09 57 35.546 +03 18 25.67 19.9 i F51 – Pan-STARRS 1, Haleakala MPS 413008
2012 02 22.53160 09 57 35.209 +03 18 29.28 19.9 i F51 – Pan-STARRS 1, Haleakala MPS 413008
2012 02 22.53466 09 57 35.050 +03 18 30.98 20.0 i F51 – Pan-STARRS 1, Haleakala MPS 413008
2014 09 19.46612 01 39 06.493 +07 15 05.37 20.8 w F51 – Pan-STARRS 1, Haleakala MPS 536275
2014 09 19.47846 01 39 06.112 +07 14 59.59 20.6 w F51 – Pan-STARRS 1, Haleakala MPS 536275
2014 09 19.48114 01 39 06.026 +07 14 58.29 20.6 w F51 – Pan-STARRS 1, Haleakala MPS 536275
2014 09 19.49087 01 39 05.719 +07 14 53.70 20.6 w F51 – Pan-STARRS 1, Haleakala MPS 536275
2014 09 19.49355 01 39 05.641 +07 14 52.44 20.7 w F51 – Pan-STARRS 1, Haleakala MPS 536275
2014 09 19.50333 01 39 05.328 +07 14 47.86 20.6 w F51 – Pan-STARRS 1, Haleakala MPS 536275
2014 09 19.50601 01 39 05.245 +07 14 46.59 20.7 w F51 – Pan-STARRS 1, Haleakala MPS 536275
2014 09 23.46262 01 36 59.399 +06 42 39.27 20.5 w F51 – Pan-STARRS 1, Haleakala MPS 536275
2014 09 23.47500 01 36 58.943 +06 42 33.15 20.7 w F51 – Pan-STARRS 1, Haleakala MPS 536275
2014 09 23.48742 01 36 58.478 +06 42 26.58 20.6 w F51 – Pan-STARRS 1, Haleakala MPS 536275
2014 09 23.49989 01 36 58.014 +06 42 20.47 20.7 w F51 – Pan-STARRS 1, Haleakala MPS 536275
2014 09 24.27816 01 36 30.88 +06 35 43.8 20.6 V 691 – Steward Observatory, Kitt Peak-Spacewatch MPS 536275
2014 09 24.29850 01 36 30.12 +06 35 33.4 20.8 V 691 – Steward Observatory, Kitt Peak-Spacewatch MPS 536275
2014 09 24.31883 01 36 29.37 +06 35 23.0 20.5 V 691 – Steward Observatory, Kitt Peak-Spacewatch MPS 536275
2014 09 25.38068 01 35 50.72 +06 26 16.0 19.9 V 703 – Catalina Sky Survey MPS 536275
2014 09 25.41286 01 35 49.47 +06 25 59.1 21.3 V 703 – Catalina Sky Survey MPS 536275
2014 09 25.42897 01 35 48.88 +06 25 50.6 20.3 V 703 – Catalina Sky Survey MPS 536275
2014 10 02.23672 01 31 11.24 +05 24 17.5 20.3 V 691 – Steward Observatory, Kitt Peak-Spacewatch MPS 538676
